Location: 5810 Zion Rd, Cleves, OH 45002, USA
(39.1922°N, 84.7113°W)
Time: 14:38:11
(UTC-05:00)

Courier 1B Rocket - Pass Details

Date: 12 December 2019
Orbit: 920 x 1202 km, 28.2° (Epoch: 22 January)

Event Time Altitude Azimuth Distance (km) Brightness Sun altitude
Rises 08:19:27 0° 253° (WSW) 3,802 7.7 4.2°
Reaches altitude 10° 08:22:32 10° 243° (WSW) 2,801 7.2 4.7°
Maximum altitude 08:28:21 31° 184° (S) 1,625 6.7 5.6°
Drops below altitude 10° 08:33:54 10° 123° (ESE) 2,653 10.5 6.5°
Sets 08:36:44 0° 114° (ESE) 3,573 9.9 6.9°
